Regional Weather Roundup
Issued by NWS

Home | Current Version | Previous Version | Graphics & Text | Print | Product List | Glossary On
Versions: 1 2 3 4 5 6 7 8 9 10 11 12 13 14 15 16 17 18 19 20 21 22 23 24 25 26 27 28 29 30 31 32 33 34 35 36 37 38 39 40 41 42 43 44 45 46 47 48 49 50
338
ASUS45 KBOU 101807
RWRCO

WEATHER ROUNDUP FOR COLORADO
NATIONAL WEATHER SERVICE DENVER/BOULDER CO
1100 AM MST WED FEB 10 2016

NOTE: "FAIR" INDICATES FEW OR NO CLOUDS BELOW 12000 FEET WITH NO
SIGNIFICANT WEATHER AND/OR OBSTRUCTIONS TO VISIBILITY.

COZ001>005-013-030-031-101900-
...NORTHWEST COLORADO...

CITY           SKY/WX    TMP DP  RH WIND       PRES   REMARKS
CRAIG          CLOUDY    16  12  84 CALM      30.42F
HAYDEN         CLOUDY    27  14  59 E10       30.41F WCI  17
MEEKER         CLOUDY    27  14  58 CALM      30.41F
MOUNT WERNER   NOT AVBL
STEAMBOAT SPGS CLOUDY    20  17  88 CALM      30.42F
WALDEN         CLOUDY    30  14  51 SE9       30.39F WCI  22
$$

COZ006>008-011-101900-
...WEST CENTRAL VALLEYS...

CITY           SKY/WX    TMP DP  RH WIND       PRES   REMARKS
GRAND JUNCTION SUNNY     34  22  61 CALM      30.47F
MONTROSE       SUNNY     38  19  46 NW5       30.48F
EAGLE          SUNNY     19  14  79 CALM      30.52F
RIFLE          SUNNY     28  17  63 CALM      30.48F
DELTA          SUNNY     38  22  52 CALM      30.48F
NUCLA          SUNNY     34  21  60 CALM      30.51F
$$

COZ017>023-064>068-101900-
...SOUTHWEST COLORADO...

CITY           SKY/WX    TMP DP  RH WIND       PRES   REMARKS
DURANGO        SUNNY     32  19  58 NE6       30.46S WCI  26
CORTEZ         SUNNY     41  19  41 CALM      30.47F
PAGOSA SPRINGS SUNNY     42  10  27 CALM      30.46F
TELLURIDE      CLOUDY    41  10  27 CALM      30.52F
WOLF CREEK PAS SUNNY     36  -6  17 W9        30.60F
$$

COZ009-010-012-014-032>034-037-058>063-101900-
...CENTRAL COLORADO...

CITY           SKY/WX    TMP DP  RH WIND       PRES   REMARKS
ASPEN          SUNNY     37  15  40 NW5       30.43F
BUENA VISTA    SUNNY     41  10  28 CALM      30.40F
COPPER MTN     SUNNY     34  -4  19 NW17G31   30.52S WCI  23
BERTHOUD PASS  FAIR      27  16  63 NW44G51   30.43F WCI   8
COTTONWOOD PAS SUNNY     46 -18   6 SW20G28   30.44F
GUNNISON       CLOUDY    -4  -9  77 CALM      30.62F
KREMMLING      CLOUDY   N/A N/A N/A CALM      30.52F FOG
LEADVILLE      CLOUDY    41   0  18 NW10G17   30.45F
MONARCH PASS   CLOUDY    30   0  27 W28       30.63F WCI  16
SALIDA         NOT AVBL
SUNLIGHT       SUNNY     37  12  35 CALM      30.54
WILKERSON PASS CLOUDY    36  -4  18 W12G21    30.47F
$$

COZ069>075-101900-
...SAN LUIS VALLEY/SANGRE DE CRISTO MOUNTAINS...

CITY           SKY/WX    TMP DP  RH WIND       PRES   REMARKS
ALAMOSA        SUNNY     37  18  46 VRB3      30.47F
LA VETA PASS   SUNNY     39  10  30 S9G18     30.46S
SAGUACHE       SUNNY     36  14  41 CALM      30.48S
$$

COZ035-036-038>040-101900-
...NORTHERN COLORADO FRONT RANGE...

CITY           SKY/WX    TMP DP  RH WIND       PRES   REMARKS
DENVER INTL AP MOSUNNY   60  19  20 W15       30.16F
DMNS CITY PARK   N/A     63   9  12 W18       30.17F
AURORA         MOSUNNY   61  14  16 W12       30.19S
FRONT RANGE AP MOSUNNY   55  21  26 MISG      30.18S
ERIE MUNI ARPT SUNNY     58  14  17 W14G20    30.15F
BOULDER MUN AP SUNNY     63  12  14 W18G38    30.15F
CENTENNIAL     MOSUNNY   55  16  21 SW9       30.20F
BROOMFIELD     MOSUNNY   64   9  11 SW6       30.19F
FORT COLLINS   SUNNY     55  21  26 E6        30.14S
LONGMONT       SUNNY     65  16  14 S7        30.15F
$$

COZ041-046-047-076>085-087-088-101900-
...PIKES PEAK/PALMER DIVIDE AND SOUTHERN FOOTHILLS...

CITY           SKY/WX    TMP DP  RH WIND       PRES   REMARKS
COLO. SPRINGS  MOSUNNY   60   3  10 NW15      30.24F
A. F. ACADEMY  NOT AVBL
SCHRIEVER AFB  NOT AVBL
ELLICOTT       SUNNY    N/A N/A N/A N6        30.22S
FALCON         NOT AVBL
FORT CARSON    SUNNY     53  19  25 S5        30.21F
LIMON          SUNNY     46  23  40 W14       30.17F
MONUMENT HILL  SUNNY     48  14  25 W12       30.27F
TRINIDAD       SUNNY     67   4   8 W12       30.24F
$$

COZ042>045-048>051-090-091-101900-
...NORTHEAST COLORADO...

CITY           SKY/WX    TMP DP  RH WIND       PRES   REMARKS
GREELEY ARPT   SUNNY     48  30  49 S5        30.13F
AKRON          SUNNY     46  27  47 SW15      30.09F
BURLINGTON     SUNNY     50  24  36 W17       30.09F
WRAY           SUNNY     53  28  37 W10       30.06F
STERLING       SUNNY     54  32  43 W13       30.04F
HOLYOKE        SUNNY     48  32  53 W12       30.05S
FORT MORGAN    SUNNY     48  26  42 W13       30.10F
$$

COZ086-089-092>099-101900-
...SOUTHEAST COLORADO...

CITY           SKY/WX    TMP DP  RH WIND       PRES   REMARKS
PUEBLO         SUNNY     68   9  10 W20       30.18F
LA JUNTA       SUNNY     61  18  18 W18G26    30.16F
LAMAR          SUNNY     59  22  24 W21       30.13F
SPRINGFIELD      N/A     70  10  10 W21       30.15F
$$




USA.gov is the U.S. government's official web portal to all federal, state and local government web resources and services.